FW0153 Weather Reports


time (UTC)temp
F
wind
direction
speed
knots
gust
knots
rain 1hr
in
rain 24hr
in
rain mn
in
humidity
%
barometer
mb
20220525132505 67 105 3.5 0.0 0.00 0.11 0.00 91 1009.9
20220525132005 67 169 3.5 0.0 0.00 0.11 0.00 91 1009.6
20220525131505 66 125 0.0 0.0 0.00 0.11 0.00 91 1009.6
20220525131004 66 141 3.5 0.0 0.00 0.11 0.00 91 1009.6
20220525130505 66 94 7.8 0.0 0.00 0.11 0.00 91 1009.6
20220525130005 66 101 3.5 0.0 0.00 0.11 0.00 91 1009.3
20220525125505 65 186 7.8 0.0 0.00 0.11 0.00 91 1009.6
20220525125005 65 106 7.8 0.0 0.00 0.11 0.00 91 1009.3
20220525124505 65 123 3.5 0.0 0.00 0.11 0.00 91 1009.6
20220525124004 65 32 7.8 0.0 0.00 0.11 0.00 91 1009.3
20220525123505 65 125 11.3 0.0 0.00 0.11 0.00 91 1009.3
20220525123005 65 116 7.8 0.0 0.00 0.11 0.00 91 1009.3
20220525122505 65 110 3.5 0.0 0.00 0.11 0.00 91 1009.6
20220525122005 65 143 3.5 0.0 0.00 0.11 0.00 91 1009.9
20220525121505 65 65 3.5 0.0 0.00 0.11 0.00 91 1010.3
20220525121005 65 156 3.5 0.0 0.00 0.11 0.00 90 1010.6
20220525120505 65 188 7.8 0.0 0.00 0.11 0.00 90 1010.3
20220525120005 65 49 20.0 0.0 0.00 0.11 0.00 90 1010.6
20220525115505 65 81 3.5 0.0 0.00 0.11 0.00 90 1010.3
20220525115005 65 46 15.6 0.0 0.00 0.11 0.00 90 1009.9
20220525114505 65 110 7.8 0.0 0.12 0.11 0.00 90 1010.6
20220525114005 65 149 3.5 0.0 0.12 0.11 0.00 90 1010.6
20220525113505 65 96 7.8 0.0 0.19 0.09 0.00 90 1011.0
20220525113004 65 107 11.3 0.0 0.24 0.09 0.00 89 1010.6
20220525112505 66 332 11.3 0.0 0.12 0.06 0.00 89 1011.0
20220525112005 66 110 15.6 0.0 0.19 0.05 0.00 88 1011.0
20220525111505 66 179 15.6 0.0 0.24 4.75 0.00 88 1010.6
20220525111005 68 72 23.5 0.0 0.12 4.73 0.00 87 1010.6
20220525110505 68 160 32.2 0.0 0.00 4.71 0.00 86 1010.6
20220525110005 75 328 32.2 0.0 0.00 4.71 0.00 87 1009.9
20220525105505 75 67 3.5 0.0 0.00 4.71 0.00 89 1009.6
20220525105005 74 327 20.0 0.0 0.00 4.71 0.00 89 1008.9
20220525104505 74 23 11.3 0.0 0.00 4.71 0.00 89 1008.6
20220525104005 74 55 11.3 0.0 0.00 4.71 0.00 90 1007.9
20220525103505 74 96 3.5 0.0 0.00 4.71 0.00 90 1007.6
20220525103005 74 145 3.5 0.0 0.00 4.71 0.00 90 1007.2
20220525102505 74 343 7.8 0.0 0.00 4.71 0.00 90 1007.2
20220525102005 74 43 7.8 0.0 0.00 4.71 0.00 90 1006.9
20220525101505 74 91 0.0 0.0 0.00 4.71 0.00 90 1006.5
20220525101005 74 51 0.0 0.0 0.00 4.71 0.00 90 1006.5
20220525100504 74 103 0.0 0.0 0.00 4.71 0.00 90 1006.2
20220525100005 74 155 3.5 0.0 0.00 4.71 0.00 90 1006.2
20220525095505 74 157 3.5 0.0 0.00 4.71 0.00 90 1005.9
20220525095005 74 141 0.0 0.0 0.00 4.71 0.00 90 1005.5
20220525094505 74 166 0.0 0.0 0.00 4.71 0.00 90 1005.2
20220525094004 74 180 3.5 0.0 0.00 4.71 0.00 90 1004.8
20220525093505 74 158 7.8 0.0 0.00 4.71 0.00 90 1005.2
20220525093005 74 184 3.5 0.0 0.00 4.71 0.00 90 1004.8
20220525092505 74 119 3.5 0.0 0.00 4.71 0.00 90 1005.2
20220525092005 74 114 7.8 0.0 0.00 4.71 0.00 90 1005.2
20220525091505 74 145 0.0 0.0 0.00 4.71 0.00 90 1004.5
20220525091004 74 191 15.6 0.0 0.00 4.71 0.00 90 1004.8
20220525090505 74 147 3.5 0.0 0.00 4.71 0.00 89 1004.5
20220525090005 74 99 7.8 0.0 0.00 4.71 0.00 89 1004.8
20220525085505 74 179 11.3 0.0 0.00 4.71 0.00 89 1004.8
20220525085005 74 93 7.8 0.0 0.00 4.71 0.00 89 1005.2
20220525084505 74 206 3.5 0.0 0.00 4.71 0.00 89 1005.2
20220525084005 74 150 15.6 0.0 0.00 4.71 0.00 89 1005.2
20220525083505 74 207 3.5 0.0 0.00 4.71 0.00 89 1005.2
20220525083005 74 136 11.3 0.0 0.00 4.71 0.00 89 1005.5
20220525082505 74 167 3.5 0.0 0.00 4.71 0.00 88 1005.5
20220525082005 74 146 3.5 0.0 0.00 4.71 0.00 88 1005.2
20220525081505 74 127 15.6 0.0 0.00 4.71 0.00 88 1005.5
20220525081004 74 96 23.5 0.0 0.00 4.71 0.00 88 1005.5
20220525080505 75 172 0.0 0.0 0.00 4.71 0.00 88 1005.5
20220525080005 75 101 7.8 0.0 0.00 4.71 0.00 88 1005.9
20220525075505 75 142 11.3 0.0 0.00 4.71 0.00 88 1005.9
20220525075005 75 198 3.5 0.0 0.00 4.71 0.00 88 1005.9
20220525074504 74 181 0.0 0.0 0.00 4.71 0.00 88 1005.9
20220525074005 74 174 0.0 0.0 0.00 4.71 0.00 88 1005.9
20220525073505 74 127 11.3 0.0 0.00 4.71 0.00 88 1006.2
20220525073005 74 169 0.0 0.0 0.00 4.71 0.00 88 1005.9
20220525072505 74 180 0.0 0.0 0.00 4.71 0.00 88 1006.2
20220525072005 74 159 0.0 0.0 0.00 4.71 0.00 88 1006.2
20220525071505 74 163 0.0 0.0 0.00 4.71 0.00 88 1006.5
20220525071005 74 104 3.5 0.0 0.00 4.71 0.00 88 1006.2
20220525070504 74 175 3.5 0.0 0.00 4.71 0.00 88 1006.2
20220525070005 74 163 0.0 0.0 0.00 4.71 0.00 88 1005.9
20220525065505 74 81 15.6 0.0 0.00 4.71 0.00 88 1005.9
20220525065005 74 121 7.8 0.0 0.00 4.71 0.00 88 1005.9
20220525064505 75 183 3.5 0.0 0.00 4.71 0.00 87 1006.2
20220525064005 75 171 20.0 0.0 0.00 4.71 0.00 87 1005.9
20220525063504 75 148 20.0 0.0 0.00 4.71 0.00 87 1006.2
20220525063005 75 186 3.5 0.0 0.00 4.71 0.00 87 1006.2
20220525062505 75 173 15.6 0.0 0.00 4.71 0.00 87 1005.5
20220525062005 75 135 27.8 0.0 0.00 4.71 0.00 87 1005.9
20220525061505 75 105 20.0 0.0 0.00 4.71 0.00 87 1005.5
20220525061005 75 90 3.5 0.0 0.00 4.71 0.00 87 1005.5
20220525060504 75 136 7.8 0.0 0.00 4.71 0.00 87 1005.5
20220525060005 75 168 11.3 0.0 0.00 4.71 0.00 87 1005.5
20220525055505 75 88 7.8 0.0 0.00 4.71 0.00 86 1005.5
20220525055005 75 151 15.6 0.0 0.00 4.71 0.00 86 1005.5
20220525054505 75 141 3.5 0.0 0.00 4.71 0.00 86 1005.5
20220525054004 75 97 35.6 0.0 0.00 4.71 0.00 86 1005.5
20220525053505 75 89 15.6 0.0 0.00 4.71 0.00 86 1005.5
20220525053005 75 146 11.3 0.0 0.00 4.71 0.00 86 1005.9
20220525052505 75 223 7.8 0.0 0.00 4.71 0.00 86 1005.9
20220525052005 75 175 3.5 0.0 0.00 4.71 0.00 86 1006.2
20220525051505 75 148 11.3 0.0 0.00 4.71 0.00 86 1006.2
20220525051005 75 133 20.0 0.0 0.00 4.71 0.00 86 1006.2
20220525050504 75 105 11.3 0.0 0.00 4.71 0.00 86 1006.2
20220525045526 75 100 11.3 0.0 0.00 4.71 0.00 85 1006.5
20220525045029 75 107 11.3 0.0 0.00 4.71 0.00 85 1006.5
20220525044507 75 167 3.5 0.0 0.00 4.71 0.00 85 1006.2
20220525044008 75 242 7.8 0.0 0.00 4.71 0.00 85 1006.2
20220525043511 75 217 3.5 0.0 0.00 4.71 0.00 85 1006.5
20220525043009 75 213 3.5 0.0 0.00 4.71 0.00 85 1006.5
20220525042517 75 191 3.5 0.0 0.00 4.71 0.00 85 1006.5
20220525042020 75 194 0.0 0.0 0.00 4.71 0.00 85 1006.5
20220525041523 75 187 11.3 0.0 0.00 4.71 0.00 84 1006.5
20220525041026 75 254 11.3 0.0 0.00 4.71 0.00 84 1006.2
20220525040506 75 93 11.3 0.0 0.00 4.71 0.00 84 1006.2
20220525040007 75 217 11.3 0.0 0.00 4.71 0.00 84 1005.9
20220525035508 75 96 7.8 0.0 0.00 4.71 0.00 84 1005.9
20220525035011 75 174 7.8 0.0 0.00 4.71 0.00 84 1005.9
20220525034514 75 178 20.0 0.0 0.00 4.71 0.00 84 1005.9
20220525034017 75 111 27.8 0.0 0.00 4.71 0.00 84 1005.9
20220525033520 75 166 7.8 0.0 0.00 4.71 0.00 83 1005.9
20220525033023 75 123 15.6 0.0 0.00 4.71 0.00 83 1005.5
20220525032526 75 130 11.3 0.0 0.00 4.71 0.00 83 1005.9
20220525032029 75 63 11.3 0.0 0.00 4.71 0.00 83 1005.9
20220525031532 75 105 3.5 0.0 0.00 4.71 0.00 83 1006.2
20220525031008 75 181 3.5 0.0 0.00 4.71 0.00 83 1005.9
20220525030511 75 224 7.8 0.0 0.00 4.71 0.00 83 1005.9
20220525030014 75 202 0.0 0.0 0.00 4.71 0.00 83 1006.2
20220525025517 75 109 11.3 0.0 0.00 4.71 0.00 82 1006.2
20220525025020 75 138 11.3 0.0 0.00 4.71 0.00 82 1005.9
20220525024523 75 204 20.0 0.0 0.00 4.71 0.00 82 1005.9
20220525024026 75 157 3.5 0.0 0.00 4.71 0.00 82 1005.5
20220525023529 75 154 11.3 0.0 0.00 4.71 0.00 82 1004.8
20220525023032 75 74 3.5 0.0 0.00 4.71 0.00 82 1004.5
20220525022508 75 241 11.3 0.0 0.00 4.71 0.00 82 1004.5
20220525022011 75 152 7.8 0.0 0.00 4.71 0.00 81 1004.5
20220525021514 75 166 11.3 0.0 0.00 4.71 0.00 81 1004.2
20220525021017 75 152 7.8 0.0 0.00 4.71 0.00 81 1004.2
20220525020507 76 183 32.2 0.0 0.00 4.71 0.00 81 1004.2
20220525020023 76 149 20.0 0.0 0.00 4.71 0.00 80 1003.8
20220525015526 76 226 20.0 0.0 0.00 4.71 0.00 80 1004.2
20220525015027 76 176 15.6 0.0 0.00 4.71 0.00 79 1003.8
20220525014532 77 151 15.6 0.0 0.00 4.71 0.00 78 1003.8
20220525014008 77 159 27.8 0.0 0.00 4.71 0.00 78 1003.8
20220525013507 77 143 20.0 0.0 0.00 4.71 0.00 77 1003.5
20220525013014 77 151 20.0 0.0 0.00 4.71 0.00 77 1003.8
20220525012517 77 129 20.0 0.0 0.00 4.71 0.00 76 1004.2
20220525012020 77 97 20.0 0.0 0.00 4.71 0.00 76 1004.5
20220525011523 77 131 23.5 0.0 0.00 4.71 0.00 75 1004.5
20220525011026 77 72 20.0 0.0 0.00 4.71 0.00 75 1004.2
20220525010529 77 96 11.3 0.0 0.00 4.71 0.00 75 1004.5
20220525010027 77 171 15.6 0.0 0.00 4.71 0.00 74 1004.5
20220525005508 77 121 35.6 0.0 0.00 4.71 0.00 74 1004.5
20220525005011 78 116 20.0 0.0 0.00 4.71 0.00 74 1004.2
20220525004514 78 145 3.5 0.0 0.00 4.71 0.00 74 1004.5
20220525004017 78 154 11.3 0.0 0.00 4.71 0.00 73 1004.5
20220525003519 78 143 11.3 0.0 0.00 4.71 0.00 73 1004.5
20220525003022 79 180 3.5 0.0 0.00 4.71 0.00 73 1004.5
20220525002526 79 108 11.3 0.0 0.00 4.71 0.00 72 1004.5
20220525002022 79 165 11.3 0.0 0.00 4.71 0.00 71 1005.2
20220525001532 80 99 11.3 0.0 0.00 4.71 0.00 70 1004.8
20220525001008 79 103 15.6 0.0 0.00 4.71 0.00 70 1004.5
20220525000511 80 92 15.6 0.0 0.00 4.71 0.00 69 1004.2
20220525000014 80 207 11.3 0.0 0.00 4.71 0.00 69 1004.2
20220524235517 80 111 23.5 0.0 0.00 4.71 0.00 68 1004.5
20220524235020 80 210 15.6 0.0 0.00 4.71 0.00 68 1004.5
20220524234523 80 145 23.5 0.0 0.00 4.71 0.00 67 1004.5
20220524234019 81 207 23.5 0.0 0.00 4.71 0.00 66 1004.5
20220524233529 81 219 11.3 0.0 0.00 4.71 0.00 65 1004.5
20220524233015 81 205 23.5 0.0 0.00 4.71 0.00 65 1004.5
20220524232508 82 195 15.6 0.0 0.00 4.71 0.00 65 1004.2
20220524232011 81 233 15.6 0.0 0.00 4.71 0.00 65 1004.5
20220524231514 81 266 15.6 0.0 0.00 4.71 0.00 64 1004.5
20220524231017 81 63 11.3 0.0 0.00 4.71 0.00 65 1004.8
20220524230512 81 222 20.0 0.0 0.00 4.71 0.00 64 1004.8
20220524230014 82 194 32.2 0.0 0.00 4.71 0.00 64 1004.8
20220524225526 83 174 35.6 0.0 0.00 4.71 0.00 64 1004.5
20220524225011 83 260 20.0 0.0 0.00 4.71 0.00 63 1004.8
20220524224532 83 194 7.8 0.0 0.00 4.71 0.00 63 1004.8
20220524224008 83 77 15.6 0.0 0.00 4.71 0.00 63 1004.8
20220524223508 83 237 3.5 0.0 0.00 4.71 0.00 64 1004.5
20220524223007 83 205 15.6 0.0 0.00 4.71 0.00 63 1004.5
20220524222517 83 128 20.0 0.0 0.00 4.71 0.00 63 1004.5
20220524222009 83 308 20.0 0.0 0.00 4.71 0.00 63 1004.5
20220524221523 83 228 23.5 0.0 0.00 4.71 0.00 63 1004.5
20220524221009 83 226 23.5 0.0 0.00 4.71 0.00 62 1004.5
20220524220529 83 216 11.3 0.0 0.00 4.71 0.00 63 1004.5
20220524220005 83 211 27.8 0.0 0.00 4.71 0.00 63 1004.5
20220524215505 83 139 20.0 0.0 0.00 4.71 0.00 64 1004.5
20220524215004 83 226 11.3 0.0 0.00 4.71 0.00 63 1004.5
20220524214505 83 181 7.8 0.0 0.00 4.71 0.00 64 1004.5
20220524214005 83 224 32.2 0.0 0.00 4.71 0.00 64 1004.5
20220524213505 83 212 20.0 0.0 0.00 4.71 0.00 62 1004.5
20220524213005 84 163 20.0 0.0 0.00 4.71 0.00 61 1004.5
20220524212505 84 168 11.3 0.0 0.00 4.71 0.00 61 1004.5
20220524212005 84 170 27.8 0.0 0.00 4.71 0.00 61 1004.5
20220524211505 84 160 15.6 0.0 0.00 4.71 0.00 62 1004.5
20220524211005 84 202 20.0 0.0 0.00 4.71 0.00 61 1004.8
20220524210505 83 182 11.3 0.0 0.00 4.71 0.00 61 1005.2
20220524210005 83 182 23.5 0.0 0.00 4.71 0.00 62 1005.2
20220524205505 83 201 23.5 0.0 0.00 4.71 0.00 61 1005.2
20220524205005 83 156 15.6 0.0 0.00 4.71 0.00 61 1005.2
20220524204505 83 252 20.0 0.0 0.00 4.71 0.00 63 1005.2
20220524204005 83 178 20.0 0.0 0.00 4.71 0.00 63 1005.2
20220524203505 83 223 20.0 0.0 0.00 4.71 0.00 62 1005.5
20220524203005 84 99 23.5 0.0 0.00 4.71 0.00 62 1005.5
20220524202504 83 127 15.6 0.0 0.00 4.71 0.00 62 1005.5
20220524202005 83 94 15.6 0.0 0.00 4.71 0.00 61 1005.9
20220524201505 83 189 15.6 0.0 0.00 4.71 0.00 63 1005.9
20220524201005 83 108 11.3 0.0 0.00 4.71 0.00 64 1005.9
20220524200505 83 243 40.0 0.0 0.00 4.71 0.00 63 1006.2
20220524200005 83 226 11.3 0.0 0.00 4.71 0.00 64 1005.9
20220524195505 83 198 11.3 0.0 0.00 4.71 0.00 63 1006.2
20220524195005 83 194 20.0 0.0 0.00 4.71 0.00 64 1005.9
20220524194505 83 204 35.6 0.0 0.00 4.71 0.00 63 1006.2
20220524194005 83 97 32.2 0.0 0.00 4.71 0.00 63 1006.2
20220524193505 83 58 20.0 0.0 0.00 4.71 0.00 64 1006.2
20220524193005 83 129 27.8 0.0 0.00 4.71 0.00 64 1006.5
20220524192505 82 154 20.0 0.0 0.00 4.71 0.00 65 1006.5
20220524192005 82 223 11.3 0.0 0.00 4.71 0.00 65 1006.5
20220524191504 82 145 7.8 0.0 0.00 4.71 0.00 65 1006.5
20220524191005 81 223 23.5 0.0 0.00 4.71 0.00 65 1006.9
20220524190505 81 168 15.6 0.0 0.00 4.71 0.00 66 1006.9
20220524190005 80 126 20.0 0.0 0.00 4.71 0.00 66 1006.9
20220524185505 80 128 11.3 0.0 0.00 4.71 0.00 67 1007.2
20220524185005 80 218 11.3 0.0 0.00 4.71 0.00 66 1007.2
20220524184504 79 217 11.3 0.0 0.00 4.71 0.00 68 1007.6
20220524184005 78 198 11.3 0.0 0.00 4.71 0.00 67 1007.6
20220524183505 77 93 3.5 0.0 0.00 4.71 0.00 70 1007.9
20220524183005 78 226 20.0 0.0 0.00 4.71 0.00 68 1007.9
20220524182505 77 100 11.3 0.0 0.00 4.71 0.00 68 1007.9
20220524182005 77 231 7.8 0.0 0.00 4.71 0.00 69 1007.9
20220524181504 78 128 15.6 0.0 0.00 4.71 0.00 67 1007.9
20220524181005 78 89 11.3 0.0 0.00 4.71 0.00 68 1007.9
20220524180505 77 204 7.8 0.0 0.00 4.71 0.00 69 1008.2
20220524180005 77 185 11.3 0.0 0.00 4.71 0.00 69 1008.2
20220524175505 77 148 15.6 0.0 0.00 4.71 0.00 70 1007.9
20220524175005 75 117 11.3 0.0 0.00 4.71 0.00 73 1008.2
20220524174505 74 218 11.3 0.0 0.00 4.71 0.00 74 1008.2
20220524174005 75 103 3.5 0.0 0.00 4.71 0.00 73 1008.2
20220524173505 74 161 7.8 0.0 0.00 4.71 0.00 75 1008.6
20220524173004 74 141 11.3 0.0 0.00 4.71 0.00 76 1008.9
20220524172505 73 231 7.8 0.0 0.00 4.71 0.00 78 1008.6
20220524172005 73 166 11.3 0.0 0.00 4.71 0.00 79 1008.9
20220524171505 73 160 3.5 0.0 0.00 4.71 0.00 80 1008.9
20220524171005 73 236 3.5 0.0 0.00 4.71 0.00 82 1008.9
20220524170505 72 149 11.3 0.0 0.00 4.71 0.00 83 1008.9
20220524170004 72 97 7.8 0.0 0.00 4.71 0.00 84 1008.9
20220524165505 71 172 3.5 0.0 0.00 4.71 0.00 86 1008.6
20220524165005 71 218 11.3 0.0 0.00 4.71 0.00 87 1008.2
20220524164505 71 221 3.5 0.0 0.00 4.71 0.00 88 1007.9
20220524164005 71 206 0.0 0.0 0.00 4.71 0.00 88 1007.9
20220524163505 70 215 3.5 0.0 0.00 4.71 0.00 89 1007.6
20220524163004 70 235 3.5 0.0 0.00 4.71 0.00 90 1007.9
20220524162505 70 207 0.0 0.0 0.00 4.71 0.00 90 1007.6
20220524162005 69 220 7.8 0.0 0.00 4.71 0.00 90 1007.6
20220524161505 70 223 3.5 0.0 0.00 4.71 0.00 90 1007.6
20220524161005 69 175 0.0 0.0 0.00 4.71 0.00 91 1007.2
20220524160505 69 203 3.5 0.0 0.00 4.71 0.00 91 1007.6
20220524160005 69 242 3.5 0.0 0.00 4.71 0.00 91 1007.6
20220524155505 69 220 3.5 0.0 0.00 4.71 0.00 91 1007.6
20220524155004 69 216 0.0 0.0 0.00 4.71 0.00 92 1007.9
20220524154505 68 200 3.5 0.0 0.00 4.71 0.00 92 1007.6
20220524154005 68 202 7.8 0.0 0.00 4.71 0.00 92 1007.9
20220524153505 68 206 0.0 0.0 0.00 4.71 0.00 92 1007.9
20220524153005 68 203 3.5 0.0 0.00 4.71 0.00 92 1007.9
20220524152504 68 98 7.8 0.0 0.00 4.71 0.00 92 1007.2
20220524152005 68 213 0.0 0.0 0.00 4.71 0.00 92 1007.2
20220524151505 68 194 0.0 0.0 0.00 4.71 0.00 92 1007.2
20220524151005 68 161 0.0 0.0 0.00 4.71 0.00 92 1007.2
20220524150505 68 183 3.5 0.0 0.00 4.71 0.00 92 1007.2
20220524150006 68 84 0.0 0.0 0.00 4.71 0.00 92 1006.5
20220524145505 68 177 3.5 0.0 0.00 4.71 0.00 92 1006.9
20220524145005 68 129 3.5 0.0 0.00 4.71 0.00 92 1006.9
20220524144505 67 95 7.8 0.0 0.00 4.71 0.00 92 1007.2
20220524144005 67 161 11.3 0.0 0.00 4.71 0.00 92 1006.5
20220524143505 67 90 7.8 0.0 0.00 4.71 0.00 92 1006.9
20220524143005 67 65 7.8 0.0 0.00 4.71 0.00 92 1006.9
20220524142505 67 207 7.8 0.0 0.00 4.71 0.00 92 1005.9
20220524142004 67 178 3.5 0.0 0.00 4.71 0.00 92 1005.5
20220524141505 66 37 11.3 0.0 0.00 4.71 0.00 92 1005.9
20220524141005 66 123 7.8 0.0 0.00 4.71 0.00 92 1006.2
20220524140505 66 254 11.3 0.0 0.00 4.71 0.00 93 1006.2
20220524140005 66 200 3.5 0.0 0.00 4.71 0.00 93 1006.2
20220524135505 66 108 11.3 0.0 0.05 4.71 0.00 93 1006.2
20220524135005 66 84 7.8 0.0 0.05 4.71 0.00 93 1006.2
20220524134505 67 125 27.8 0.0 0.07 4.70 0.00 93 1005.5
20220524134005 67 48 23.5 0.0 0.07 4.70 0.00 93 1005.9
20220524133505 67 95 20.0 0.0 0.12 4.69 0.00 93 1007.2
20220524133005 68 198 11.3 0.0 0.12 4.69 0.00 93 1007.2